Regional Weather Roundup
Issued by NWS

Home | Current Version | Previous Version | Text Only | Print | Product List | Glossary Off
Versions: 1 2 3 4 5 6 7 8 9 10 11 12 13 14 15 16 17 18 19 20 21 22 23 24 25 26 27

000
ASUS45 KPSR 040210
RWRAZ

ARIZONA HOURLY REGIONAL WEATHER ROUNDUP
NATIONAL WEATHER SERVICE PHOENIX AZ
700 PM MST SAT DEC 03 2016

NOTE: FAIR INDICATES FEW OR NO CLOUDS BELOW 12,000 FEET WITH NO
SIGNIFICANT WEATHER AND/OR OBSTRUCTIONS TO VISIBILITY.

AZZ001>003-036-040300-
NORTHWEST ARIZONA

CITY           SKY/WX    TMP DP  RH WIND       PRES   REMARKS
BULLHEAD CITY  CLEAR     59   7  12 N20       30.08S
KINGMAN        CLEAR     39   9  29 E9        30.12R WCI  33
$$

AZZ004>008-015-016-018-040300-
NORTH CENTRAL ARIZONA

CITY           SKY/WX    TMP DP  RH WIND       PRES   REMARKS
GRAND CANYON   PTCLDY    21  13  71 CALM      30.15R
PRESCOTT       CLEAR     39  15  37 NW9       30.06R WCI  33
FLAGSTAFF      CLEAR     35   5  28 NE17G29   30.07F WCI  25
PAYSON         CLEAR     41  16  36 N10       30.08R
PAGE           CLEAR     37  10  32 CALM      30.14R
$$

AZZ009>014-017-040300-
NORTHEAST ARIZONA

CITY           SKY/WX    TMP DP  RH WIND       PRES   REMARKS
WINSLOW        CLEAR     37  11  34 NW10      30.09S WCI  30
SAINT JOHNS    CLEAR     34  22  61 W9        30.06S WCI  27
WINDOW ROCK    CLEAR     32  16  51 N7        30.09  WCI  26
SHOW LOW       CLEAR     28  18  64 NE5       30.09R WCI  23
$$

AZZ023-040300-
GREATER PHOENIX AREA

CITY           SKY/WX    TMP DP  RH WIND       PRES   REMARKS
PHOENIX        CLEAR     60  28  29 SW5       29.92R
BUCKEYE        CLEAR     57  21  24 N12       29.97R
GLENDALE       CLEAR     61  28  29 CALM      29.95R
LUKE AFB       CLEAR     59  27  28 NW7       29.93R
DEER VALLEY    CLEAR     60  24  25 CALM      29.93R
SCOTTSDALE     CLEAR     61  26  26 NW5       29.95R
MESA-FALCON    CLEAR    N/A N/A N/A W7        29.91R
MESA-GATEWAY   CLEAR     59  27  29 W5        29.94R
CHANDLER       CLEAR     61  28  29 SW6       29.93S
$$

AZZ027-028-040300-
SOUTHWEST MARICOPA COUNTY AND PINAL COUNTY

CITY           SKY/WX    TMP DP  RH WIND       PRES   REMARKS
CASA GRANDE    NOT AVBL
$$

AZZ503-504-507>509-040300-
SOUTHEAST ARIZONA

CITY           SKY/WX    TMP DP  RH WIND       PRES   REMARKS
TUCSON         CLEAR     55  28  35 W7        29.97R
DAVIS-MONTHAN  CLEAR     56  27  33 NW9       29.95R
RYAN FIELD     CLEAR     54  28  37 W9        29.98R
NOGALES        MOCLDY    49  31  49 W3        29.96R
SIERRA VISTA   MOCLDY    45  37  72 SE7       29.98R
DOUGLAS        CLOUDY    46  38  73 S3        29.98R
SAFFORD        PTCLDY    49  39  68 E6        29.97R
$$

AZZ020-021-025-026-031-040300-
SOUTHWEST ARIZONA

CITY           SKY/WX    TMP DP  RH WIND       PRES   REMARKS
YUMA           CLEAR     63   8  11 N7        30.01R
$$

CAZ031-033-041-043-047-048-061-040300-
SOUTHERN CALIFORNIA

CITY           SKY/WX    TMP DP  RH WIND       PRES   REMARKS
DOWNTOWN L.A.  CLEAR     57  22  25 CALM      30.04S
L.A. AIRPORT   CLEAR     60  22  23 E5        30.04S
SAN DIEGO      CLEAR     60  35  39 CALM      30.06R
BURBANK        CLEAR     58  27  30 NW3       30.05R
ONTARIO        CLEAR     55  17  22 N6        30.05R
RIVERSIDE      CLEAR     69  17  13 N13G22    30.03R
PALM SPRINGS   CLEAR     66  10  11 SW6       30.04S
EL CENTRO NAS  CLEAR     57   5  12 W3        30.04R
IMPERIAL       CLEAR     62  12  14 NW3       30.02R
BLYTHE         CLEAR     60   2   9 N13       30.03R
NEEDLES        CLEAR     59   4  11 N15       30.08S
$$

NVZ020-UTZ003-040300-
SOUTHERN NEVADA-UTAH

CITY           SKY/WX    TMP DP  RH WIND       PRES   REMARKS
LAS VEGAS      CLEAR     54   6  14 SW3       30.14R
SALT LAKE CITY MOCLDY    34  21  59 SE7       30.27R WCI  28
$$

NMZ009-TXZ055-040300-
NEW MEXICO-WEST TEXAS

CITY           SKY/WX    TMP DP  RH WIND       PRES   REMARKS
ALBUQUERQUE    CLEAR     38  26  62 NW16      30.03R WCI  29
EL PASO        CLOUDY    45  37  73 E6        29.98R
$$


........................KEY........................
SKY/WX - SKY CONDITION/WEATHER
TMP    - TEMPERATURE IN FAHRENHEIT
DP     - DEW POINT IN FAHRENHEIT
RH     - RELATIVE HUMIDITY IN PERCENT
WIND   - DIRECTION AND SPEED IN MILES PER HOUR (MPH)
VRB    - VARIABLE WIND DIRECTION
PRES   - MEAN SEA LEVEL PRESSURE IN INCHES OF MERCURY
         F - FALLING PRESSURE   R - RISING PRESSURE
         S - STEADY PRESSURE
VSB    - VISIBILITY IN MILES
HX     - HEAT INDEX IN FAHRENHEIT
WCI    - WIND CHILL INDEX IN FAHRENHEIT
TC     - TEMPERATURE IN CELSIUS WHICH IS ALSO KNOWN AS
         TEMPERATURE IN CENTIGRADE
AFB    - AIR FORCE BASE
         LUKE AFB IS LUKE AIR FORCE BASE
         DAVIS-MONTHAN IS DAVIS-MONTHAN AIR FORCE BASE
NAS    - NAVAL AIR STATION
         EL CENTRO NAS IS EL CENTRO NAVAL AIR STATION
N/A    - NOT AVAILABLE





USA.gov is the U.S. government's official web portal to all federal, state and local government web resources and services.